Home > Weather > Radom > Past weeks

Flag for Poland Weather for the Past 2 Weeks in Radom, Poland

Now
48 °F

Clear.


Feels Like: 43 °F
Forecast: 35 / 39 °F
Wind: 13 mph from South

Location: Warsaw Okecie Airport

Current Time: Feb 10, 2016 at 4:18:37 AM

Latest Report: Feb 10, 2016 at 3:30 AM


Visibility: 10 mi

Pressure: 29.27 "Hg

Humidity: 76%

Dew point: 41 °F

Location of RadomLocation

Historic Weather in Radom — Graph

°F

Radom Temperature Yesterday

Maximum temperature yesterday: 50 °F (at 3:00 AM)
Minimum temperature yesterday: 41 °F (at 6:30 PM)
Average temperature yesterday: 47 °F

High & Low Weather Summary for the Past Weeks

 TemperatureHumidityPressure
High52 °F (Jan 28, 10:00 AM)100% (Jan 26, 2:00 AM)30.21 "Hg (Jan 26, 2:00 AM)
Low30 °F (Feb 6, 3:00 AM)50% (Jan 29, 1:30 PM)29.27 "Hg (Feb 10, 2:30 AM)
Average42 °F76%29.88 "Hg
* Reported Jan 26 2:00 AM — Feb 10 2:30 AM, Radom, Weather by CustomWeather, © 2016

Note: Actual official high and low records may vary slightly from our data, if they occured in-between our weather recording intervals... More about our weather records

Advertising

Radom Weather History for the Previous 24 Hours

 ConditionsComfort  
Time TempWeatherWind HumidityBarometerVisibility
2:30 AM
Wed, Feb 10
48 °FClear.14 mph76%29.27 "Hg10 mi
1:30 AM46 °FClear.13 mph76%29.30 "Hg10 mi
1:00 AM46 °FClear.14 mph76%29.30 "Hg10 mi
12:30 AM46 °FClear.14 mph76%29.33 "Hg10 mi
12:00 AM46 °FClear.14 mph71%29.33 "Hg10 mi
11:30 PM
Tue, Feb 9
46 °FClear.15 mph71%29.36 "Hg10 mi
10:30 PM46 °FClear.13 mph71%29.39 "Hg10 mi
10:00 PM46 °FClear.14 mph71%29.39 "Hg10 mi
9:30 PM46 °FClear.14 mph66%29.39 "Hg10 mi
9:00 PM46 °FClear.13 mph66%29.42 "Hg10 mi
8:30 PM46 °FClear.12 mph62%29.45 "Hg10 mi
8:00 PM46 °FClear.10 mph62%29.45 "Hg10 mi
7:30 PM46 °FClear.10 mph62%29.45 "Hg10 mi
7:00 PM45 °FClear.10 mph66%29.47 "Hg10 mi
6:30 PM41 °FClear.8 mph76%29.50 "Hg10 mi
6:00 PM45 °FClear.7 mph66%29.50 "Hg10 mi
5:00 PM45 °FClear.7 mph66%29.53 "Hg10 mi
4:00 PM48 °FSunny.8 mph54%29.53 "Hg10 mi
3:30 PM50 °FSunny.8 mph50%29.56 "Hg10 mi
3:00 PM50 °FSunny.12 mph50%29.56 "Hg10 mi
2:30 PM50 °FPassing clouds.9 mph54%29.56 "HgN/A
2:00 PM50 °FScattered clouds.10 mph54%29.56 "HgN/A
1:30 PM50 °FPassing clouds.13 mph54%29.56 "HgN/A
1:00 PM50 °FPassing clouds.13 mph50%29.56 "HgN/A
12:30 PM50 °FPassing clouds.15 mph50%29.56 "HgN/A
11:30 AM50 °FPassing clouds.15 mph50%29.59 "HgN/A
10:30 AM50 °FPassing clouds.14 mph54%29.59 "HgN/A
10:00 AM48 °FSunny.14 mph58%29.59 "Hg10 mi
9:00 AM46 °FPassing clouds.12 mph62%29.59 "HgN/A
8:30 AM45 °FSunny.12 mph66%29.59 "Hg10 mi
8:00 AM45 °FSunny.10 mph66%29.59 "Hg10 mi
7:30 AM45 °FSunny.10 mph66%29.59 "Hg10 mi
7:00 AM45 °FClear.10 mph66%29.56 "Hg10 mi
6:30 AM46 °FClear.12 mph62%29.56 "Hg10 mi
6:00 AM46 °FPassing clouds.10 mph62%29.56 "HgN/A
5:30 AM46 °FClear.15 mph62%29.56 "Hg10 mi
5:00 AM48 °FPassing clouds.16 mph62%29.56 "HgN/A
4:30 AM50 °FPassing clouds.21 mph58%29.53 "HgN/A
4:00 AM50 °FPassing clouds.16 mph67%29.53 "HgN/A
Weather by CustomWeather, © 2016

See weather overviewHow to use our weather pages